EHI
0 0 0 0 0 0 0 0 0 0 0 0 0 0 0 0 0 0 0 0 0 0 0 0 0 0 0 0 0 0 0 0 0 0 0 0 0 0 0 0 0 0 0 0
0 0 0 0 0 0 0 0 0 0 0 0 0 0 0 0 0 0 0 0 0 0 0 0 0 0 0 0 0 0 0 0 0 0 0 0 0 0 0 0 0 0 0 0
0 0 0 0 0 0 0 0 0 0 0 0 0 0 0 0 0 0 0 0 0 0 0 0 0 0 0 0 0 0 0 0 0 0 0 0 0 0 0 0 0 0 0 0
0 0 0 0 0 0 0 0 0 0 0 0 0 0 0 0 0 0 0 0 0 0 0 0 0 0 0 0 0 0 0 0 0 0 0 0 0 0 0 0 0 0 0 0
0 0 0 0 0 0 0 0 0 0 0 0 0 0 0 0 0 0 0 0 0 0 0 0 0 0 0 0 0 0 0 0 0 0 0 0 0 0 0 0 0 0 0 0
0 0 0 0 0 0 0 0 0 0 0 0 0 0 0 0 0 0 0 0 0 0 0 0 0 0 0 0 0 0 0 0 0 0 0 0 0 0 0 0 0 0 0 0
0 0 0 0 0 0 0 0 0 0 0 0 0 0 0 0 0 0 0 0 0 0 0 0 0 0 0 0 0 0 0 0 0 0 0 0 0 0 0 0 0 0 0 0
0 0 0 0 0 0 0 0 0 0 0 0 0 0 0 0 0 0 0 0 0 0 0 0 0 0 0 0 0 0 0 0 0 0 0 0 0 0 0 0 0 0 0 0
0 0 0 0 0 0 0 0 0 0 0 0 0 0 0 0 0 0 0 0 0 0 0 0 0 0 0 0 0 0 0 0 0 0 0 0 0 0 0 0 0 0 0 0
0 0 0 0 0 0 0 0 0 0 0 0 0 0 0 0 0 0 0 0 0 0 0 0 0 0 0 0 0 0 0 0 0 0 0 0 0 0 0 0 0 0 0 0
0 0 0 0 0 0 0 0 0 0 0 0 0 0 0 0 0 0 0 0 0 0 0 0 0 0 0 0 0 0 0 0 0 0 0 0 0 0 0 0 0 0 0 0
0 0 0 0 0 0 0 0 0 0 0 0 0 0 0 0 0 0 0 0 0 0 0 0 0 0 0 0 0 0 0 0 0 0 0 0 0 0 0 0 0 0 0 0
0 0 0 0 0 0 0 0 0 0 0 0 0 0 0 0 0 0 0 0 0 0 0 0 0 0 0 0 0 0 0 0 0 0 0 0 0 0 0 0 0 0 0 0
0 0 0 0 0 0 0 0 0 0 0 0 0 0 0 0 0 0 0 0 0 0 0 0 0 0 0 0 0 0 0 0 0 0 0 0 0 0 0 0 0 0 0 0
0 0 0 0 0 0 0 0 0 0 0 0 0 0 0 0 0 0 0 0 0 0 0 0 0 0 0 0 0 0 0 0 0 0 0 0 0 0 0 0 0 0 0 0
0 0 0 0 0 0 0 0 0 0 0 0 0 0 0 0 0 0 0 0 0 0 0 0 0 0 0 0 0 0 0 0 0 0 0 0 0 0 0 0 0 0 0 0
0 0 0 0 0 0 0 0 0 0 0 0 0 0 0 0 0 0 0 0 0 0 0 0 0 0 0 0 0 0 0 0 0 0 0 0 0 0 0 0 0 0 0 0
0 0 0 0 0 0 0 0 0 0 0 0 0 0 0 0 0 0 0 0 0 0 0 0 0 0 0 0 0 0 0 0 0 0 0 0 0 0 0 0 0 0 0 0
0 0 0 0 0 0 0 0 0 0 0 0 0 0 0 0 0 0 0 0 0 0 0 0 0 0 0 0 0 0 0 0 0 0 0 0 0 0 0 0 0 0 0 0
0 0 0 0 0 0 0 0 0 0 0 0 0 0 0 0 0 0 0 0 0 0 0 0 0 0 0 0 0 0 0 0 0 0 0 0 0 0 0 0 0 0 0 0
0 0 0 0 0 0 0 0 0 0 0 0 0 0 0 0 0 0 0 0 0 0 0 0 0 0 0 0 0 0 0 0 0 0 0 0 0 0 0 0 0 0 0 0
0 0 0 0 0 0 0 0 0 0 0 0 0 0 0 0 0 0 0 0 0 0 0 0 0 0 0 0 0 0 0 0 0 0 0 0 0 0 0 0 0 0 0 0
0 0 0 0 0 0 0 0 0 0 0 0 0 0 0 0 0 0 0 0 0 0 0 0 0 0 0 0 0 0 0 0 0 0 0 0 0 0 0 0 0 0 0 0
0 0 0 0 0 0 0 0 0 0 0 0 0 0 0 0 0 0 0 0 0 0 0 0 0 0 0 0 0 0 0 0 0 0 0 0 0 0 0 0 0 0 0 0
0 0 0 0 0 0 0 0 0 0 0 0 0 0 0 0 0 0 0 0 0 0 0 0 0 0 0 0 0 0 0 0 0 0 0 0 0 0 0 0 0 0 0 0
0 0 0 0 0 0 0 0 0 0 0 0 0 0 0 0 0 0 0 0 0 0 0 0 0 0 0 0 0 0 0 0 0 0 0 0 0 0 0 0 0 0 0 0
Wind_Speed
2 3 1 4 4 3 2 2 5 5 3 3 5 8 10 6 3 3 4 4 3 4 4 3 3 1 0 0 0 1 0 1 1 1 2 2 2 2 2 2 3 3 3 4
4 1 3 2 2 1 2 3 4 4 2 2 4 8 7 4 3 2 2 3 4 4 5 4 3 2 1 1 0 1 1 1 2 2 2 2 2 2 2 2 3 3 4 4
2 3 1 1 0 1 2 3 3 3 5 2 4 6 3 2 1 2 2 3 4 3 5 5 4 3 2 1 2 2 2 2 2 1 1 1 1 1 1 2 2 3 4 4
1 3 1 1 1 1 3 2 2 2 2 3 2 5 5 2 4 4 4 5 5 5 4 4 4 4 3 3 2 2 2 1 1 1 2 3 3 3 3 2 3 3 4 4
2 1 1 1 2 1 2 1 1 1 1 2 1 2 7 2 3 5 5 5 6 6 5 5 5 4 4 3 2 2 2 2 1 2 2 3 3 3 2 2 3 3 3 4
2 1 0 2 2 1 0 2 3 4 3 2 2 2 7 2 3 4 5 6 6 6 6 5 5 4 4 3 2 1 1 2 2 2 2 3 4 4 3 3 3 3 2 3
5 3 1 0 1 3 3 4 5 6 4 5 1 2 8 4 2 3 5 6 6 6 6 6 6 5 5 5 3 2 2 2 2 2 2 3 4 3 4 3 4 3 3 3
2 4 2 1 1 1 0 3 4 2 4 5 2 5 6 3 2 3 3 4 6 6 6 5 5 5 5 4 4 3 2 2 2 2 2 2 2 2 2 2 3 3 3 3
2 4 2 1 0 2 2 1 2 4 0 3 6 6 7 2 3 4 5 6 7 7 7 6 6 5 5 4 4 3 2 2 2 2 2 2 2 2 2 2 2 2 2 2
3 2 3 3 2 2 1 3 3 3 0 4 6 5 4 4 5 5 6 6 7 7 7 7 6 6 5 5 4 3 2 2 2 1 1 1 2 2 2 2 2 2 2 2
2 1 4 2 1 2 2 2 3 2 2 2 4 6 3 2 3 4 5 5 6 6 7 7 6 6 5 5 4 3 3 2 2 1 1 1 1 1 1 1 2 2 2 2
1 2 2 4 2 1 1 3 4 2 3 3 3 8 2 1 3 3 5 6 6 6 6 6 6 6 5 5 5 4 3 3 2 2 1 1 0 0 0 1 1 1 1 1
3 3 2 5 3 2 0 1 2 2 2 3 4 9 2 3 5 4 5 6 6 6 6 6 6 5 5 5 4 4 4 3 2 2 1 1 1 0 0 1 1 1 1 1
3 3 5 6 5 2 3 2 2 3 3 5 8 10 8 7 8 7 7 7 6 6 6 6 6 5 5 5 4 4 4 3 3 2 2 1 1 1 1 1 0 1 1 1
3 2 3 5 4 3 5 6 5 6 7 8 9 9 10 7 6 6 6 7 7 7 7 7 6 6 5 5 5 4 3 3 2 2 2 1 1 1 1 1 1 1 1 0
3 1 1 3 2 3 5 7 7 7 6 8 9 11 7 6 5 5 5 6 6 8 8 7 7 6 6 5 5 4 3 3 2 2 2 2 2 2 2 1 1 1 1 1
2 2 1 4 4 4 6 6 7 5 5 5 8 8 6 7 7 6 6 6 7 7 7 7 7 6 5 5 4 3 3 3 2 2 2 2 2 3 2 2 2 1 1 1
4 3 1 2 3 4 6 1 2 4 5 5 5 6 6 6 7 6 4 4 7 7 7 6 6 6 5 3 3 3 2 2 2 2 2 2 3 3 3 3 2 1 1 1
3 4 2 1 2 8 6 1 1 2 5 3 5 7 7 6 5 4 2 3 5 6 6 5 5 5 4 3 3 2 3 3 3 2 2 2 2 2 3 3 2 1 1 1
3 3 3 2 2 6 4 2 1 1 4 2 2 5 5 4 4 5 5 6 7 6 5 5 5 4 3 4 3 3 3 3 2 2 2 2 2 2 2 1 2 2 2 1
2 1 3 3 4 9 5 2 1 1 5 4 3 4 3 3 5 6 7 7 6 6 6 5 4 3 3 3 3 2 2 2 2 2 2 2 2 2 1 1 1 2 2 2
5 4 4 4 4 8 1 2 2 4 4 3 4 4 4 5 6 6 6 6 6 6 6 5 4 3 3 3 3 2 3 3 2 2 2 3 2 2 2 2 2 2 1 1
6 6 5 8 7 3 2 3 3 2 4 4 4 5 5 5 6 6 6 5 5 5 5 4 3 3 4 3 2 2 3 2 2 3 3 3 3 2 2 2 2 2 1 1
3 2 3 4 7 4 4 3 3 3 4 5 5 5 5 5 6 6 6 5 5 4 4 3 2 3 4 4 3 2 2 2 2 2 3 3 3 3 3 2 2 2 2 1
4 3 3 5 6 5 4 3 4 4 4 5 5 4 4 5 6 5 5 5 4 4 3 2 2 2 3 3 3 3 2 2 2 2 2 2 2 2 3 3 2 2 2 2
4 5 5 6 4 3 5 4 3 4 5 5 5 6 5 4 5 5 5 4 4 3 3 3 3 3 3 3 3 3 2 1 1 1 2 2 2 2 2 2 3 5 4 5
Wind_Direction
20 71 205 228 214 221 209 246 270 275 288 293 264 274 281 282 273 281 297 305 297 294 301 314 311 294 285 277 92 138 201 214 182 178 182 177 190 196 193 185 177 178 174 174
36 294 246 242 216 218 225 261 276 295 321 297 286 282 278 266 243 249 296 316 310 317 330 331 329 328 278 261 249 219 221 236 220 208 186 174 175 191 203 185 181 182 179 179
195 255 273 185 263 259 258 219 243 279 323 335 319 305 302 313 342 359 353 327 322 314 313 320 323 314 321 306 267 255 250 251 244 215 157 131 133 175 201 199 190 190 185 187
267 289 315 322 302 224 270 244 239 276 340 309 7 302 291 319 333 346 345 343 332 327 318 320 325 321 314 296 285 270 255 247 245 209 189 191 197 208 218 210 200 198 190 193
290 318 341 276 277 228 231 315 322 284 164 324 334 248 289 346 323 318 329 333 328 325 327 325 322 313 316 313 303 281 257 247 237 216 202 199 212 217 217 203 195 199 198 195
265 289 247 234 287 263 216 35 52 49 63 317 258 195 282 269 268 308 325 328 330 333 337 332 335 339 334 333 328 310 269 264 249 222 210 205 207 214 214 218 207 205 202 197
335 329 341 351 9 354 46 67 25 3 4 267 266 223 257 265 275 284 302 318 330 342 346 346 352 349 340 340 336 316 281 275 262 229 221 221 211 207 216 225 215 209 207 208
341 300 312 1 164 232 344 116 141 209 254 288 301 244 259 277 312 326 329 331 347 355 353 350 348 341 331 329 326 310 296 288 280 242 234 227 208 201 222 228 221 215 215 213
180 268 317 340 328 139 92 103 142 128 195 284 278 288 301 321 351 356 358 1 355 350 348 343 342 340 335 330 320 303 298 301 291 259 241 220 211 210 224 239 219 212 219 215
157 262 290 315 49 40 118 135 90 101 154 286 294 281 273 307 324 340 349 351 346 345 342 339 337 336 337 332 325 333 322 299 290 276 251 247 225 221 218 227 224 210 205 203
132 167 309 352 179 191 97 89 102 117 169 192 288 278 235 264 309 316 324 333 335 334 330 329 330 331 333 336 336 345 344 339 338 318 283 259 241 226 213 228 237 219 201 197
132 125 276 270 275 283 175 170 150 164 240 209 240 271 280 283 311 319 323 328 327 326 327 327 329 334 340 342 340 342 342 336 326 331 351 340 287 217 189 252 259 219 206 208
139 118 4 343 343 353 287 186 157 137 137 189 217 266 315 356 345 335 327 325 324 328 332 334 336 338 336 334 333 335 335 334 342 360 20 21 2 3 284 263 237 201 204 218
106 141 184 215 236 213 245 240 189 158 191 235 237 266 296 321 324 323 325 322 321 323 327 332 333 330 326 325 327 331 333 339 351 19 32 29 7 349 301 254 228 193 186 196
96 184 234 259 269 251 247 245 221 211 212 225 254 262 280 298 302 306 313 319 323 323 326 327 327 322 324 330 332 332 336 341 352 26 29 3 359 12 31 44 50 52 80 346
76 149 312 297 286 260 267 257 237 235 234 245 272 277 283 297 308 309 309 312 312 314 316 319 320 320 323 325 328 330 338 342 358 33 22 15 23 28 32 38 55 44 37 34
116 127 55 287 317 337 281 247 211 215 220 210 240 264 312 318 316 307 301 303 301 305 311 313 311 310 312 311 315 323 332 349 20 35 27 25 31 29 24 39 48 40 32 40
145 136 140 309 8 263 254 255 195 220 250 236 263 290 300 297 298 289 284 294 303 311 314 314 316 318 318 319 330 343 357 16 29 35 34 34 36 27 27 39 35 25 29 15
157 143 129 126 281 282 298 293 177 211 284 245 256 288 307 320 321 312 316 313 301 302 305 307 310 312 320 333 343 4 16 23 29 23 20 19 26 31 30 28 14 12 38 7
79 107 127 145 222 255 272 288 266 123 302 316 276 292 312 345 337 301 323 323 316 316 318 319 325 332 342 343 1 24 19 18 7 359 355 359 26 29 25 18 6 21 27 13
121 112 168 192 234 264 265 280 70 125 280 312 296 288 293 274 256 286 311 315 313 316 322 329 332 339 338 346 12 20 13 352 339 354 5 10 22 27 11 29 29 30 25 23
177 173 190 172 215 257 257 110 176 244 290 303 295 287 284 284 289 298 307 313 321 327 330 335 339 340 341 354 8 2 347 335 352 14 20 19 16 8 7 33 18 19 18 14
201 195 191 198 219 249 204 218 247 256 279 288 288 293 291 291 295 303 310 312 316 317 320 329 339 344 347 354 2 341 327 346 9 26 24 19 10 11 14 22 12 5 357 349
248 207 199 254 266 268 268 261 277 275 272 288 290 289 289 286 293 302 307 310 312 313 317 327 343 345 335 340 351 338 331 2 26 24 16 17 20 16 17 10 5 350 331 332
230 182 214 255 276 302 281 269 284 293 300 304 303 287 281 285 293 296 302 304 305 310 319 327 325 319 317 328 337 342 350 23 29 13 5 9 15 13 10 7 360 343 333 331
200 191 197 235 237 234 268 276 287 295 298 301 305 304 301 287 287 297 299 300 304 311 321 325 323 318 320 328 332 340 346 18 38 3 359 2 4 4 7 6 359 360 350 353